Regional Weather Roundup
Issued by NWS Bismarck, ND

Home | Current Version | Previous Version | Text Only | Print | Product List | Glossary On
Versions: 1 2 3 4 5 6 7 8 9 10 11 12 13 14 15 16 17 18 19 20 21 22 23 24 25 26 27 28 29 30 31 32 33 34 35 36 37 38 39 40 41 42 43 44 45 46 47 48 49 50
000
ASUS43 KBIS 312010
RWRBIS

NWR BROADCAST TEXT
NATIONAL WEATHER SERVICE BISMARCK ND
300 PM CDT TUE MAY 31 2016

NOTE: "FAIR" INDICATES FEW OR NO CLOUDS BELOW 12,000 FEET WITH NO
SIGNIFICANT WEATHER AND/OR OBSTRUCTIONS TO VISIBILITY.


CITY           SKY/WX    TMP DP  RH WIND       PRES   REMARKS
WILLISTON      LGT RAIN  54  50  86 N28G36    29.84R
MINOT          CLOUDY    66  47  50 S7        29.62R
MINOT AFB      PTSUNNY   64  54  70 N14       29.60R
BISMARCK       CLOUDY    58  51  78 SW15      29.65F
DICKINSON      LGT RAIN  50  47  89 NW32G43   29.73R
GARRISON         N/A     60  49  66 W5        29.63R
HETTINGER ARPT LGT RAIN  51  48  89 NW29G40   29.81R
JAMESTOWN      CLOUDY    64  47  53 SW17G23   29.67F
BEACH          LGT RAIN  50  50 100 NW29G41   29.91R
CARRINGTON     MOCLDY    63  48  59 SW10G18   29.67F
HAZEN          MOCLDY    57  46  67 NW8       29.65R
LINTON         MOCLDY    57  52  82 SW24G32     N/A
MANDAN         MOCLDY    55  50  82 SW16      29.65F
OAKES            N/A    N/A N/A N/A MISG        N/A
RUGBY          CLOUDY    59  50  72 S10       29.64S
STANLEY        FAIR      52  52 100 N28G43    29.72R FOG
WATFORD CITY   RAIN      50  50 100 NW28G35   29.80R
$$

CITY           SKY/WX    TMP DP  RH WIND       PRES   REMARKS
GRAND FORKS    PTSUNNY   64  50  60 SW21G28   29.68F
GRAND FORKS AF PTSUNNY   65  49  55 SW17G23   29.69S
DEVILS LAKE    MOSUNNY   63  49  60 SW12      29.66F
FARGO          PTSUNNY   70  45  40 SW22G29   29.73F
CAVALIER       MOCLDY    64  57  77 SW16G24   29.65S
GRAFTON        MOCLDY    66  55  68 S15G21    29.69S
GWINNER        MOCLDY    64  46  52 SW20      29.76F
LANGDON        CLOUDY    61  55  82 S16       29.66F
ROLLA          MOCLDY    63  52  67 S9        29.64S
WALHALLA       FAIR      66  63  88 S15G21    29.64F
$$

CITY           SKY/WX    TMP DP  RH WIND       PRES   REMARKS
ABERDEEN       CLOUDY    66  45  46 SW24G37   29.79F
MOBRIDGE       LGT RAIN  58  49  72 SW20G28   29.74F
BUFFALO          N/A     55  48  77 W35G48    29.85R
RAPID CITY     CLOUDY    64  39  39 NW29G36   29.96S
GLASGOW        PTSUNNY   64  42  44 N28G39    30.00R
SIDNEY         CLOUDY    55  50  82 NW24      29.88R
WOLF POINT     CLOUDY    59  50  72 NW17G26   29.96R
GLENDIVE       CLOUDY    54  48  82 NW25G35   29.96R
MILES CITY     CLOUDY    57  54  89 NW23G32   30.02S
BAKER          LGT RAIN  51  32  48 NW20G28   29.94R
$$

CITY           SKY/WX    TMP DP  RH WIND       PRES   REMARKS
BILLINGS       PTSUNNY   61  37  41 N14       30.16S
GREAT FALLS    PTSUNNY   61  35  37 MISG      30.21F
REGINA         CLOUDY    54  50  87 N13G20    29.94S
ESTEVAN        LGT RAIN  52  50  93 N18G26    29.81R FOG
$$




USA.gov is the U.S. government's official web portal to all federal, state and local government web resources and services.